| time (UTC) | temp F | wind direction | speed knots | gust knots | rain 1hr in | rain 24hr in | rain mn in | humidity % | barometer mb |
| 20260901100304 | 61 | 0 | 0.0 | 0.0 | 0.00 | 0.00 | 0.00 | 100 | 1011.7 |
| 20260901095803 | 61 | 0 | 0.0 | 0.0 | 0.00 | 0.00 | 0.00 | 100 | 1011.7 |
| 20260901095306 | 61 | 0 | 0.0 | 0.0 | 0.00 | 0.00 | 0.00 | 100 | 1011.6 |
| 20260901094803 | 61 | 0 | 0.0 | 0.0 | 0.00 | 0.00 | 0.00 | 100 | 1011.6 |
| 20260901094304 | 61 | 0 | 0.0 | 0.0 | 0.00 | 0.00 | 0.00 | 100 | 1011.6 |
| 20260901093803 | 62 | 0 | 0.0 | 0.0 | 0.00 | 0.00 | 0.00 | 100 | 1011.6 |
| 20260901093303 | 62 | 0 | 0.0 | 0.0 | 0.00 | 0.00 | 0.00 | 100 | 1011.5 |
| 20260901092803 | 62 | 0 | 0.0 | 0.0 | 0.00 | 0.00 | 0.00 | 100 | 1011.5 |
| 20260901092305 | 62 | 0 | 0.0 | 0.0 | 0.00 | 0.00 | 0.00 | 100 | 1011.5 |
| 20260901091804 | 62 | 0 | 0.0 | 0.0 | 0.00 | 0.00 | 0.00 | 100 | 1011.3 |
| 20260901091303 | 62 | 0 | 0.0 | 0.0 | 0.00 | 0.00 | 0.00 | 100 | 1011.3 |
| 20260901090303 | 62 | 0 | 0.0 | 0.0 | 0.00 | 0.00 | 0.00 | 100 | 1011.4 |
| 20260901085803 | 63 | 0 | 0.0 | 0.0 | 0.00 | 0.00 | 0.00 | 100 | 1011.4 |
| 20260901085305 | 63 | 0 | 0.0 | 0.0 | 0.00 | 0.00 | 0.00 | 100 | 1011.5 |
| 20260901084303 | 63 | 0 | 0.0 | 0.0 | 0.00 | 0.00 | 0.00 | 100 | 1011.3 |
| 20260901083803 | 63 | 0 | 0.0 | 0.0 | 0.00 | 0.00 | 0.00 | 100 | 1011.3 |
| 20260901083303 | 63 | 0 | 0.0 | 0.0 | 0.00 | 0.00 | 0.00 | 100 | 1011.2 |
| 20260901082803 | 64 | 0 | 0.0 | 0.0 | 0.00 | 0.00 | 0.00 | 100 | 1011.2 |
| 20260901082306 | 64 | 0 | 0.0 | 0.0 | 0.00 | 0.00 | 0.00 | 100 | 1011.2 |
| 20260901081803 | 64 | 0 | 0.0 | 0.0 | 0.00 | 0.00 | 0.00 | 100 | 1011.3 |
| 20260901081303 | 64 | 0 | 0.0 | 0.0 | 0.00 | 0.00 | 0.00 | 100 | 1011.3 |
| 20260901080803 | 64 | 0 | 0.0 | 0.0 | 0.00 | 0.00 | 0.00 | 100 | 1011.3 |
| 20260901080304 | 64 | 0 | 0.0 | 0.0 | 0.00 | 0.00 | 0.00 | 100 | 1011.3 |
| 20260901075803 | 64 | 0 | 0.0 | 0.0 | 0.00 | 0.00 | 0.00 | 100 | 1011.3 |
| 20260901075307 | 64 | 0 | 0.0 | 0.0 | 0.00 | 0.00 | 0.00 | 100 | 1011.5 |
| 20260901074304 | 65 | 0 | 0.0 | 0.0 | 0.00 | 0.00 | 0.00 | 100 | 1011.5 |
| 20260901073303 | 65 | 0 | 0.0 | 0.0 | 0.00 | 0.00 | 0.00 | 100 | 1011.7 |
| 20260901072803 | 65 | 0 | 0.0 | 0.0 | 0.00 | 0.00 | 0.00 | 100 | 1011.8 |
| 20260901072308 | 65 | 0 | 0.0 | 0.0 | 0.00 | 0.00 | 0.00 | 100 | 1011.8 |
| 20260901071804 | 65 | 0 | 0.0 | 0.0 | 0.00 | 0.00 | 0.00 | 100 | 1011.9 |
| 20260901071304 | 66 | 0 | 0.0 | 0.0 | 0.00 | 0.00 | 0.00 | 100 | 1011.8 |
| 20260901070804 | 66 | 273 | 0.0 | 2.6 | 0.00 | 0.00 | 0.00 | 100 | 1011.8 |
| 20260901070303 | 65 | 272 | 0.0 | 0.9 | 0.00 | 0.00 | 0.00 | 100 | 1011.7 |
| 20260901065305 | 65 | 272 | 0.0 | 0.9 | 0.00 | 0.00 | 0.00 | 91 | 1011.8 |
| 20260901063803 | 66 | 274 | 0.0 | 0.0 | 0.00 | 0.00 | 0.00 | 91 | 1011.8 |
| 20260901062803 | 66 | 274 | 0.0 | 0.9 | 0.00 | 0.00 | 0.00 | 91 | 1011.8 |
| 20260901062309 | 66 | 273 | 0.0 | 2.6 | 0.00 | 0.00 | 0.00 | 91 | 1011.8 |
| 20260901061803 | 66 | 272 | 0.9 | 2.6 | 0.00 | 0.00 | 0.00 | 91 | 1011.8 |
| 20260901061304 | 66 | 263 | 0.0 | 0.9 | 0.00 | 0.00 | 0.00 | 91 | 1011.8 |
| 20260901060803 | 66 | 332 | 0.0 | 0.0 | 0.00 | 0.00 | 0.00 | 91 | 1011.7 |
| 20260901060304 | 66 | 320 | 0.0 | 0.0 | 0.00 | 0.00 | 0.00 | 91 | 1011.7 |
| 20260901055803 | 66 | 304 | 0.0 | 0.0 | 0.00 | 0.00 | 0.00 | 92 | 1011.6 |
| 20260901055306 | 66 | 274 | 0.0 | 0.0 | 0.00 | 0.00 | 0.00 | 92 | 1011.5 |
| 20260901054804 | 66 | 316 | 0.0 | 0.0 | 0.00 | 0.00 | 0.00 | 92 | 1011.5 |
| 20260901054303 | 66 | 278 | 0.0 | 0.0 | 0.00 | 0.00 | 0.00 | 92 | 1011.5 |
| 20260901053804 | 66 | 280 | 0.0 | 0.9 | 0.00 | 0.00 | 0.00 | 92 | 1011.5 |
| 20260901053303 | 67 | 280 | 0.0 | 0.9 | 0.00 | 0.00 | 0.00 | 92 | 1011.4 |
| 20260901052803 | 67 | 281 | 0.0 | 0.0 | 0.00 | 0.00 | 0.00 | 92 | 1011.4 |
| 20260901052306 | 67 | 276 | 0.0 | 0.0 | 0.00 | 0.00 | 0.00 | 92 | 1011.2 |
| 20260901051804 | 67 | 274 | 0.0 | 0.0 | 0.00 | 0.00 | 0.00 | 92 | 1011.2 |
| 20260901051303 | 67 | 281 | 0.0 | 0.0 | 0.00 | 0.00 | 0.00 | 92 | 1011.2 |
| 20260901050812 | 67 | 281 | 0.0 | 0.9 | 0.00 | 0.00 | 0.00 | 92 | 1011.2 |
| 20260901050303 | 67 | 284 | 0.0 | 0.0 | 0.00 | 0.00 | 0.00 | 92 | 1011.0 |
| 20260901045804 | 68 | 284 | 0.0 | 0.9 | 0.00 | 0.00 | 0.00 | 90 | 1011.0 |
| 20260901044803 | 68 | 284 | 0.0 | 0.0 | 0.00 | 0.00 | 0.00 | 90 | 1010.9 |
| 20260901044304 | 68 | 284 | 0.0 | 0.0 | 0.00 | 0.00 | 0.00 | 90 | 1010.9 |
| 20260901043804 | 68 | 284 | 0.0 | 0.0 | 0.00 | 0.00 | 0.00 | 90 | 1010.9 |
| 20260901043303 | 68 | 285 | 0.0 | 0.0 | 0.00 | 0.00 | 0.00 | 90 | 1010.8 |
| 20260901042803 | 68 | 285 | 0.0 | 0.0 | 0.00 | 0.00 | 0.00 | 90 | 1010.8 |
| 20260901042306 | 69 | 286 | 0.0 | 0.0 | 0.00 | 0.00 | 0.00 | 90 | 1010.8 |
| 20260901041803 | 69 | 286 | 0.0 | 0.0 | 0.00 | 0.00 | 0.00 | 90 | 1010.8 |
| 20260901041304 | 69 | 286 | 0.0 | 0.0 | 0.00 | 0.00 | 0.00 | 90 | 1010.8 |
| 20260901040803 | 69 | 286 | 0.0 | 0.0 | 0.00 | 0.00 | 0.00 | 90 | 1010.9 |
| 20260901040303 | 69 | 285 | 0.0 | 0.0 | 0.00 | 0.00 | 0.00 | 90 | 1010.9 |
| 20260901035804 | 69 | 285 | 0.0 | 0.0 | 0.00 | 0.00 | 0.00 | 85 | 1010.8 |
| 20260901035305 | 69 | 285 | 0.0 | 0.0 | 0.00 | 0.00 | 0.00 | 85 | 1010.8 |
| 20260901034803 | 70 | 285 | 0.0 | 0.0 | 0.00 | 0.00 | 0.00 | 85 | 1010.8 |
| 20260901034304 | 70 | 285 | 0.0 | 0.0 | 0.00 | 0.00 | 0.00 | 85 | 1010.8 |
| 20260901033804 | 70 | 286 | 0.0 | 0.0 | 0.00 | 0.00 | 0.00 | 85 | 1010.8 |
| 20260901033303 | 70 | 286 | 0.0 | 0.0 | 0.00 | 0.00 | 0.00 | 85 | 1010.7 |
| 20260901032803 | 70 | 286 | 0.0 | 0.0 | 0.00 | 0.00 | 0.00 | 85 | 1010.7 |
| 20260901032306 | 71 | 286 | 0.0 | 0.0 | 0.00 | 0.00 | 0.00 | 85 | 1010.7 |
| 20260901031804 | 71 | 286 | 0.0 | 0.0 | 0.00 | 0.00 | 0.00 | 85 | 1010.7 |
| 20260901031303 | 71 | 286 | 0.0 | 0.9 | 0.00 | 0.00 | 0.00 | 85 | 1010.6 |
| 20260901030803 | 71 | 286 | 0.0 | 0.0 | 0.00 | 0.00 | 0.00 | 85 | 1010.6 |
| 20260901025804 | 72 | 286 | 0.0 | 0.0 | 0.00 | 0.00 | 0.00 | 85 | 1010.6 |
| 20260901025306 | 72 | 288 | 0.0 | 0.0 | 0.00 | 0.00 | 0.00 | 85 | 1010.5 |
| 20260901024803 | 72 | 286 | 0.0 | 1.7 | 0.00 | 0.00 | 0.00 | 85 | 1010.4 |
| 20260901023803 | 73 | 290 | 0.0 | 2.6 | 0.00 | 0.00 | 0.00 | 85 | 1010.4 |
| 20260901023304 | 73 | 286 | 0.0 | 2.6 | 0.00 | 0.00 | 0.00 | 85 | 1010.4 |
| 20260901022804 | 73 | 286 | 0.9 | 1.7 | 0.00 | 0.00 | 0.00 | 85 | 1010.3 |
| 20260901021804 | 74 | 286 | 0.9 | 1.7 | 0.00 | 0.00 | 0.00 | 85 | 1010.3 |
| 20260901020803 | 75 | 286 | 0.0 | 1.7 | 0.00 | 0.00 | 0.00 | 85 | 1010.3 |
| 20260901015803 | 75 | 286 | 0.9 | 1.7 | 0.00 | 0.00 | 0.00 | 80 | 1010.3 |
| 20260901014803 | 76 | 286 | 0.9 | 2.6 | 0.00 | 0.00 | 0.00 | 80 | 1010.2 |
| 20260901014304 | 76 | 286 | 0.0 | 1.7 | 0.00 | 0.00 | 0.00 | 80 | 1010.1 |
| 20260901013804 | 76 | 286 | 0.0 | 1.7 | 0.00 | 0.00 | 0.00 | 80 | 1010.0 |
| 20260901013303 | 76 | 286 | 0.0 | 1.7 | 0.00 | 0.00 | 0.00 | 80 | 1009.9 |
| 20260901012803 | 77 | 286 | 0.0 | 0.9 | 0.00 | 0.00 | 0.00 | 80 | 1009.9 |
| 20260901012306 | 77 | 286 | 0.0 | 0.9 | 0.00 | 0.00 | 0.00 | 80 | 1009.8 |
| 20260901011804 | 77 | 286 | 0.0 | 0.9 | 0.00 | 0.00 | 0.00 | 80 | 1009.7 |
| 20260901011304 | 78 | 286 | 0.0 | 0.9 | 0.00 | 0.00 | 0.00 | 80 | 1009.7 |
| 20260901010804 | 78 | 286 | 0.0 | 0.9 | 0.00 | 0.00 | 0.00 | 80 | 1009.6 |
| 20260901010304 | 79 | 286 | 0.0 | 1.7 | 0.00 | 0.00 | 0.00 | 80 | 1009.6 |
| 20260901005306 | 80 | 286 | 0.0 | 1.7 | 0.00 | 0.00 | 0.00 | 89 | 1009.6 |
| 20260901004804 | 80 | 286 | 0.0 | 0.9 | 0.00 | 0.00 | 0.00 | 89 | 1009.5 |
| 20260901004304 | 81 | 286 | 0.9 | 1.7 | 0.00 | 0.00 | 0.00 | 89 | 1009.4 |
| 20260901003804 | 81 | 286 | 0.0 | 0.9 | 0.00 | 0.00 | 0.00 | 89 | 1009.4 |
| 20260901003304 | 82 | 286 | 0.0 | 0.9 | 0.00 | 0.00 | 0.00 | 89 | 1009.3 |
| 20260901002803 | 83 | 286 | 0.0 | 0.9 | 0.00 | 0.00 | 0.00 | 89 | 1009.4 |
| 20260901002305 | 84 | 286 | 0.9 | 2.6 | 0.00 | 0.00 | 0.00 | 89 | 1009.4 |
| 20260901001804 | 85 | 282 | 0.9 | 2.6 | 0.00 | 0.00 | 0.00 | 89 | 1009.3 |
| 20260901000804 | 85 | 304 | 1.7 | 4.3 | 0.00 | 0.00 | 0.00 | 89 | 1009.2 |
| 20260901000304 | 85 | 305 | 1.7 | 2.6 | 0.00 | 0.00 | 0.00 | 89 | 1009.2 |
| 20260831235804 | 86 | 238 | 0.9 | 5.2 | 0.00 | 0.00 | 0.00 | 82 | 1009.2 |
| 20260831235306 | 86 | 302 | 0.9 | 2.6 | 0.00 | 0.00 | 0.00 | 82 | 1009.1 |
| 20260831234303 | 87 | 309 | 0.9 | 2.6 | 0.00 | 0.00 | 0.00 | 82 | 1009.2 |
| 20260831233804 | 86 | 262 | 0.0 | 1.7 | 0.00 | 0.00 | 0.00 | 82 | 1009.1 |
| 20260831232305 | 87 | 261 | 1.7 | 5.2 | 0.00 | 0.00 | 0.00 | 82 | 1008.9 |
| 20260831231304 | 87 | 309 | 0.9 | 2.6 | 0.00 | 0.00 | 0.00 | 82 | 1008.9 |
| 20260831230803 | 88 | 321 | 0.9 | 2.6 | 0.00 | 0.00 | 0.00 | 82 | 1009.0 |
| 20260831230303 | 88 | 265 | 1.7 | 6.1 | 0.00 | 0.00 | 0.00 | 80 | 1008.9 |
| 20260831225804 | 89 | 321 | 1.7 | 2.6 | 0.00 | 0.00 | 0.00 | 70 | 1008.7 |
| 20260831225306 | 89 | 341 | 0.9 | 6.1 | 0.00 | 0.00 | 0.00 | 70 | 1008.7 |
| 20260831224804 | 89 | 311 | 1.7 | 5.2 | 0.00 | 0.00 | 0.00 | 70 | 1008.6 |
| 20260831224304 | 89 | 336 | 1.7 | 2.6 | 0.00 | 0.00 | 0.00 | 70 | 1008.6 |
| 20260831223803 | 89 | 359 | 0.9 | 4.3 | 0.00 | 0.00 | 0.00 | 70 | 1008.6 |
| 20260831223303 | 89 | 60 | 0.9 | 2.6 | 0.00 | 0.00 | 0.00 | 70 | 1008.5 |
| 20260831222306 | 90 | 304 | 1.7 | 2.6 | 0.00 | 0.00 | 0.00 | 70 | 1008.4 |
| 20260831221803 | 90 | 180 | 2.6 | 7.0 | 0.00 | 0.00 | 0.00 | 70 | 1008.5 |
| 20260831221303 | 89 | 44 | 1.7 | 5.2 | 0.00 | 0.00 | 0.00 | 70 | 1008.6 |
| 20260831220803 | 89 | 254 | 0.9 | 6.1 | 0.00 | 0.00 | 0.00 | 70 | 1008.6 |
| 20260831220304 | 89 | 275 | 0.9 | 4.3 | 0.00 | 0.00 | 0.00 | 70 | 1008.6 |
| 20260831215804 | 89 | 215 | 0.9 | 4.3 | 0.00 | 0.00 | 0.00 | 78 | 1008.6 |
| 20260831215306 | 88 | 209 | 0.9 | 2.6 | 0.00 | 0.00 | 0.00 | 78 | 1008.6 |
| 20260831214804 | 87 | 332 | 0.0 | 0.0 | 0.00 | 0.00 | 0.00 | 78 | 1008.6 |
| 20260831214303 | 87 | 332 | 0.0 | 2.6 | 0.00 | 0.00 | 0.00 | 78 | 1008.5 |
| 20260831213803 | 87 | 265 | 0.0 | 2.6 | 0.00 | 0.00 | 0.00 | 78 | 1008.5 |
| 20260831213303 | 88 | 254 | 0.9 | 5.2 | 0.00 | 0.00 | 0.00 | 78 | 1008.4 |
| 20260831212803 | 88 | 285 | 2.6 | 6.1 | 0.00 | 0.00 | 0.00 | 78 | 1008.5 |
| 20260831212306 | 89 | 333 | 1.7 | 2.6 | 0.00 | 0.00 | 0.00 | 78 | 1008.4 |
| 20260831211803 | 89 | 298 | 2.6 | 5.2 | 0.00 | 0.00 | 0.00 | 78 | 1008.4 |
| 20260831211304 | 88 | 266 | 0.0 | 2.6 | 0.00 | 0.00 | 0.00 | 78 | 1008.4 |
| 20260831210303 | 88 | 84 | 0.9 | 2.6 | 0.00 | 0.00 | 0.00 | 80 | 1008.3 |
| 20260831205803 | 88 | 96 | 0.9 | 2.6 | 0.00 | 0.00 | 0.00 | 88 | 1008.3 |
| 20260831205305 | 87 | 323 | 0.0 | 2.6 | 0.00 | 0.00 | 0.00 | 88 | 1008.3 |
| 20260831204804 | 88 | 308 | 3.5 | 7.8 | 0.00 | 0.00 | 0.00 | 88 | 1008.3 |
| 20260831203303 | 87 | 319 | 0.9 | 7.0 | 0.00 | 0.00 | 0.00 | 88 | 1008.3 |
| 20260831202803 | 87 | 313 | 2.6 | 6.1 | 0.00 | 0.00 | 0.00 | 88 | 1008.3 |
| 20260831201803 | 86 | 324 | 1.7 | 5.2 | 0.00 | 0.00 | 0.00 | 88 | 1008.4 |
| 20260831201303 | 87 | 6 | 4.3 | 7.0 | 0.00 | 0.00 | 0.00 | 88 | 1008.4 |
| 20260831200803 | 87 | 285 | 2.6 | 6.1 | 0.00 | 0.00 | 0.00 | 88 | 1008.4 |
| 20260831200303 | 86 | 274 | 1.7 | 4.3 | 0.00 | 0.00 | 0.00 | 88 | 1008.4 |
| 20260831195804 | 86 | 117 | 0.0 | 0.9 | 0.00 | 0.00 | 0.00 | 88 | 1008.3 |
| 20260831195306 | 85 | 63 | 1.7 | 2.6 | 0.00 | 0.00 | 0.00 | 88 | 1008.4 |
| 20260831194303 | 84 | 39 | 0.9 | 1.7 | 0.00 | 0.00 | 0.00 | 88 | 1008.3 |
| 20260831193803 | 84 | 313 | 0.9 | 2.6 | 0.00 | 0.00 | 0.00 | 88 | 1008.3 |
| 20260831192803 | 85 | 330 | 0.9 | 1.7 | 0.00 | 0.00 | 0.00 | 88 | 1008.4 |
| 20260831192305 | 85 | 229 | 0.9 | 2.6 | 0.00 | 0.00 | 0.00 | 88 | 1008.4 |
| 20260831191804 | 84 | 310 | 0.0 | 0.9 | 0.00 | 0.00 | 0.00 | 88 | 1008.4 |
| 20260831191303 | 83 | 167 | 0.0 | 2.6 | 0.00 | 0.00 | 0.00 | 88 | 1008.4 |
| 20260831190804 | 83 | 167 | 0.9 | 2.6 | 0.00 | 0.00 | 0.00 | 88 | 1008.5 |
| 20260831185804 | 83 | 304 | 0.9 | 2.6 | 0.00 | 0.00 | 0.00 | 78 | 1008.5 |
| 20260831185306 | 83 | 229 | 0.0 | 2.6 | 0.00 | 0.00 | 0.00 | 78 | 1008.5 |
| 20260831184804 | 83 | 305 | 1.7 | 4.3 | 0.00 | 0.00 | 0.00 | 78 | 1008.5 |
| 20260831184303 | 83 | 306 | 1.7 | 2.6 | 0.00 | 0.00 | 0.00 | 78 | 1008.5 |
| 20260831183803 | 83 | 276 | 0.9 | 2.6 | 0.00 | 0.00 | 0.00 | 78 | 1008.4 |
| 20260831183304 | 83 | 297 | 1.7 | 2.6 | 0.00 | 0.00 | 0.00 | 78 | 1008.5 |
| 20260831182305 | 83 | 14 | 0.9 | 2.6 | 0.00 | 0.00 | 0.00 | 78 | 1008.6 |
| 20260831181304 | 83 | 298 | 1.7 | 4.3 | 0.00 | 0.00 | 0.00 | 78 | 1008.6 |
| 20260831180804 | 83 | 266 | 0.9 | 2.6 | 0.00 | 0.00 | 0.00 | 78 | 1008.6 |
| 20260831180304 | 83 | 274 | 1.7 | 2.6 | 0.00 | 0.00 | 0.00 | 78 | 1008.6 |
| 20260831175803 | 83 | 312 | 0.0 | 1.7 | 0.00 | 0.00 | 0.00 | 80 | 1008.5 |
| 20260831175306 | 83 | 312 | 0.9 | 4.3 | 0.00 | 0.00 | 0.00 | 80 | 1008.6 |
| 20260831174803 | 83 | 301 | 1.7 | 2.6 | 0.00 | 0.00 | 0.00 | 80 | 1008.6 |
| 20260831174303 | 82 | 269 | 1.7 | 2.6 | 0.00 | 0.00 | 0.00 | 80 | 1008.6 |
| 20260831173803 | 82 | 269 | 0.0 | 2.6 | 0.00 | 0.00 | 0.00 | 80 | 1008.5 |
| 20260831173303 | 82 | 269 | 0.9 | 2.6 | 0.00 | 0.00 | 0.00 | 80 | 1008.5 |
| 20260831172803 | 82 | 324 | 0.0 | 0.9 | 0.00 | 0.00 | 0.00 | 80 | 1008.5 |
| 20260831172306 | 82 | 324 | 1.7 | 2.6 | 0.00 | 0.00 | 0.00 | 80 | 1008.6 |
| 20260831171304 | 82 | 344 | 0.9 | 2.6 | 0.00 | 0.00 | 0.00 | 80 | 1008.7 |
| 20260831170304 | 82 | 309 | 1.7 | 4.3 | 0.00 | 0.00 | 0.00 | 80 | 1008.7 |
| 20260831165804 | 82 | 268 | 0.0 | 2.6 | 0.00 | 0.00 | 0.00 | 82 | 1008.8 |
| 20260831165305 | 82 | 278 | 0.9 | 2.6 | 0.00 | 0.00 | 0.00 | 82 | 1008.9 |
| 20260831164803 | 82 | 267 | 0.9 | 2.6 | 0.00 | 0.00 | 0.00 | 82 | 1008.9 |
| 20260831164304 | 82 | 321 | 2.6 | 4.3 | 0.00 | 0.00 | 0.00 | 82 | 1008.9 |
| 20260831163803 | 82 | 253 | 0.9 | 6.1 | 0.00 | 0.00 | 0.00 | 82 | 1008.9 |
| 20260831163304 | 82 | 212 | 0.9 | 4.3 | 0.00 | 0.00 | 0.00 | 82 | 1008.8 |
| 20260831162804 | 83 | 265 | 1.7 | 6.1 | 0.00 | 0.00 | 0.00 | 82 | 1008.8 |
| 20260831162306 | 83 | 272 | 1.7 | 5.2 | 0.00 | 0.00 | 0.00 | 82 | 1008.7 |
| 20260831161303 | 82 | 288 | 1.7 | 6.1 | 0.00 | 0.00 | 0.00 | 82 | 1008.5 |
| 20260831160803 | 81 | 283 | 1.7 | 5.2 | 0.00 | 0.00 | 0.00 | 82 | 1008.5 |
| 20260831160304 | 81 | 226 | 0.9 | 6.1 | 0.00 | 0.00 | 0.00 | 84 | 1008.5 |
| 20260831155803 | 81 | 215 | 0.9 | 2.6 | 0.00 | 0.00 | 0.00 | 93 | 1008.7 |
| 20260831155306 | 81 | 247 | 0.9 | 1.7 | 0.00 | 0.00 | 0.00 | 93 | 1008.6 |
| 20260831154803 | 81 | 328 | 0.9 | 4.3 | 0.00 | 0.00 | 0.00 | 93 | 1008.4 |
| 20260831153804 | 82 | 307 | 1.7 | 4.3 | 0.00 | 0.00 | 0.00 | 93 | 1008.2 |
| 20260831153303 | 82 | 319 | 1.7 | 5.2 | 0.00 | 0.00 | 0.00 | 93 | 1008.1 |
| 20260831152803 | 81 | 255 | 1.7 | 7.0 | 0.00 | 0.00 | 0.00 | 93 | 1008.1 |
| 20260831152306 | 81 | 13 | 0.9 | 7.0 | 0.00 | 0.00 | 0.00 | 93 | 1008.1 |
| 20260831151803 | 81 | 335 | 1.7 | 5.2 | 0.00 | 0.00 | 0.00 | 93 | 1008.0 |
| 20260831151304 | 81 | 282 | 1.7 | 6.1 | 0.00 | 0.00 | 0.00 | 93 | 1008.0 |
| 20260831150804 | 81 | 276 | 0.9 | 2.6 | 0.00 | 0.00 | 0.00 | 93 | 1007.9 |
| 20260831150303 | 80 | 298 | 1.7 | 4.3 | 0.00 | 0.00 | 0.00 | 93 | 1008.0 |
| 20260831145803 | 80 | 311 | 2.6 | 7.0 | 0.00 | 0.00 | 0.00 | 93 | 1007.8 |
| 20260831145306 | 80 | 287 | 0.0 | 2.6 | 0.00 | 0.00 | 0.00 | 93 | 1007.7 |
| 20260831144804 | 81 | 290 | 0.9 | 4.3 | 0.00 | 0.00 | 0.00 | 93 | 1007.7 |
| 20260831144303 | 81 | 279 | 2.6 | 7.0 | 0.00 | 0.00 | 0.00 | 93 | 1007.6 |
| 20260831143804 | 81 | 315 | 1.7 | 7.8 | 0.00 | 0.00 | 0.00 | 93 | 1007.5 |
| 20260831142803 | 80 | 273 | 2.6 | 7.0 | 0.00 | 0.00 | 0.00 | 93 | 1007.6 |
| 20260831141804 | 79 | 221 | 2.6 | 7.0 | 0.00 | 0.00 | 0.00 | 93 | 1007.4 |
| 20260831141303 | 79 | 219 | 0.9 | 5.2 | 0.00 | 0.00 | 0.00 | 93 | 1007.4 |
| 20260831140803 | 78 | 191 | 1.7 | 5.2 | 0.00 | 0.00 | 0.00 | 93 | 1007.3 |
| 20260831140304 | 78 | 71 | 0.0 | 0.0 | 0.00 | 0.00 | 0.00 | 93 | 1007.2 |
| 20260831135803 | 78 | 70 | 0.9 | 1.7 | 0.00 | 0.00 | 0.00 | 100 | 1007.2 |
| 20260831135306 | 77 | 315 | 0.0 | 4.3 | 0.00 | 0.00 | 0.00 | 100 | 1007.2 |
| 20260831134804 | 77 | 239 | 0.9 | 2.6 | 0.00 | 0.00 | 0.00 | 100 | 1007.2 |
| 20260831134304 | 77 | 289 | 2.6 | 8.7 | 0.00 | 0.00 | 0.00 | 100 | 1007.1 |
| 20260831133804 | 76 | 311 | 0.0 | 1.7 | 0.00 | 0.00 | 0.00 | 100 | 1007.2 |
| 20260831133304 | 76 | 307 | 0.0 | 0.0 | 0.00 | 0.00 | 0.00 | 100 | 1007.1 |
| 20260831132803 | 75 | 278 | 0.9 | 2.6 | 0.00 | 0.00 | 0.00 | 100 | 1007.1 |
| 20260831132306 | 74 | 351 | 0.0 | 0.0 | 0.00 | 0.00 | 0.00 | 100 | 1007.0 |
| 20260831131804 | 73 | 351 | 0.0 | 0.0 | 0.00 | 0.00 | 0.00 | 100 | 1006.9 |
| 20260831131303 | 73 | 351 | 0.0 | 0.0 | 0.00 | 0.00 | 0.00 | 100 | 1007.0 |
| 20260831130803 | 73 | 351 | 0.0 | 0.0 | 0.00 | 0.00 | 0.00 | 100 | 1006.9 |
| 20260831130303 | 72 | 351 | 0.0 | 0.0 | 0.00 | 0.00 | 0.00 | 100 | 1007.0 |
| 20260831125803 | 72 | 175 | 0.0 | 0.0 | 0.00 | 0.00 | 0.00 | 100 | 1006.8 |
| 20260831124804 | 71 | 175 | 0.0 | 0.0 | 0.00 | 0.00 | 0.00 | 100 | 1006.9 |
| 20260831124303 | 71 | 175 | 0.0 | 0.0 | 0.00 | 0.00 | 0.00 | 100 | 1006.9 |
| 20260831123803 | 71 | 175 | 0.0 | 0.0 | 0.00 | 0.00 | 0.00 | 100 | 1006.9 |
| 20260831123304 | 70 | 313 | 0.0 | 0.0 | 0.00 | 0.00 | 0.00 | 100 | 1006.8 |
| 20260831122803 | 70 | 250 | 0.0 | 0.0 | 0.00 | 0.00 | 0.00 | 100 | 1006.7 |
| 20260831122305 | 69 | 260 | 0.0 | 0.0 | 0.00 | 0.00 | 0.00 | 100 | 1006.7 |
| 20260831121803 | 69 | 277 | 0.0 | 0.0 | 0.00 | 0.00 | 0.00 | 100 | 1006.6 |
| 20260831121303 | 69 | 0 | 0.0 | 0.0 | 0.00 | 0.00 | 0.00 | 100 | 1006.5 |
| 20260831120804 | 69 | 0 | 0.0 | 0.0 | 0.00 | 0.00 | 0.00 | 100 | 1006.5 |
| 20260831120304 | 69 | 0 | 0.0 | 0.0 | 0.00 | 0.00 | 0.00 | 100 | 1006.4 |
| 20260831115306 | 69 | 0 | 0.0 | 0.0 | 0.00 | 0.00 | 0.00 | 100 | 1006.4 |
| 20260831114803 | 69 | 0 | 0.0 | 0.0 | 0.00 | 0.00 | 0.00 | 100 | 1006.3 |
| 20260831112307 | 68 | 0 | 0.0 | 0.0 | 0.00 | 0.00 | 0.00 | 100 | 1006.1 |
| 20260831111804 | 68 | 0 | 0.0 | 0.0 | 0.00 | 0.00 | 0.00 | 100 | 1006.1 |
| 20260831111303 | 68 | 0 | 0.0 | 0.0 | 0.00 | 0.00 | 0.00 | 100 | 1006.2 |
| 20260831110803 | 69 | 0 | 0.0 | 0.0 | 0.00 | 0.00 | 0.00 | 100 | 1006.2 |
| 20260831105803 | 68 | 0 | 0.0 | 0.0 | 0.00 | 0.00 | 0.00 | 100 | 1006.0 |
| 20260831105306 | 68 | 0 | 0.0 | 0.0 | 0.00 | 0.00 | 0.00 | 100 | 1006.1 |
| 20260831104804 | 68 | 0 | 0.0 | 0.0 | 0.00 | 0.00 | 0.00 | 100 | 1006.1 |
| 20260831104303 | 68 | 0 | 0.0 | 0.0 | 0.00 | 0.00 | 0.00 | 100 | 1006.1 |
| 20260831103804 | 68 | 0 | 0.0 | 0.0 | 0.00 | 0.00 | 0.00 | 100 | 1006.2 |
| 20260831103304 | 68 | 0 | 0.0 | 0.0 | 0.00 | 0.00 | 0.00 | 100 | 1006.2 |
| 20260831102803 | 68 | 0 | 0.0 | 0.0 | 0.00 | 0.00 | 0.00 | 100 | 1006.1 |
| 20260831102306 | 68 | 0 | 0.0 | 0.0 | 0.00 | 0.00 | 0.00 | 100 | 1006.2 |
| 20260831101804 | 68 | 0 | 0.0 | 0.0 | 0.00 | 0.00 | 0.00 | 100 | 1006.2 |
| 20260831100803 | 68 | 0 | 0.0 | 0.0 | 0.00 | 0.00 | 0.00 | 100 | 1006.2 |